Terug naar catalogus

STARLINK-36229

ActiefCommunicatieSSO
NORAD 68114·PAYLOAD·🇺🇸 United States

Gelanceerd Mar 8, 2026 vanaf Vandenberg Space Force Base

Loading…

Volgende Passages (komende 24 uur)

TLE

VersSource: CelesTrak SupGP

Epoch: Sep 15, 2026, 03:11 UTC

1 68114C 26044P   26258.13312500  .00010071  00000+0  31273-3 0  2589
2 68114  97.2851 217.1571 0001935  92.3554 320.0307 15.33424105    18

Volg STARLINK-36229 in realtime met AllMySat

Download on the App Store